Weather History for Mosby, MO

Change the Weather History Date:

Tuesday, November 20, 2012

  Actual Average (KMKC) Record (KMKC)
Temperature  
Mean Temperature 48 °F -  
Max Temperature 62 °F 51 °F 73 °F (2003)
Min Temperature 33 °F 34 °F 19 °F (2000)
Degree Days  
Heating Degree Days 18    
Moisture  
Dew Point 39 °F    
Average Humidity 79    
Maximum Humidity 100    
Minimum Humidity 48    
Precipitation  
Precipitation 0.00 in - - ()
Sea Level Pressure  
Sea Level Pressure 30.18 in    
Wind  
Wind Speed 2 mph ()    
Max Wind Speed 8 mph    
Max Gust Speed -    
Visibility 8.9 miles    
Events      
Averages and records for this station are not official NWS values.
T = Trace of Precipitation, MM = Missing Value Source: Averaged Metar Reports

Daily Weather History Graph

Daily Weather History Graph

Search for Another Location

Airport:

Trip Planner

Search our weather history database for the weather conditions in past years. The results will help you decide how hot, cold, wet, or windy it might be!

Date:

Astronomy

Nov. 20, 2012 Rise Set
Actual Time 7:07 AM CST 4:58 PM CST
Civil Twilight 6:37 AM CST 5:27 PM CST
Nautical Twilight 6:05 AM CST 6:00 PM CST
Astronomical Twilight 5:33 AM CST 6:32 PM CST
Moon 12:42 PM CST (11/20) No Moon Set
Length of Visible Light 10h 49m
Length of Day
9h 51m
First Quarter, 51% of the Moon is Illuminated
Nov 20
First Quarter
Nov 28
Full
Dec 6
Last Quarter
Dec 13
New
Dec 19
First Quarter

Hourly Weather History & Observations

Time (CST) Temp. Windchill Dew Point Humidity Pressure Visibility Wind Dir Wind Speed Gust Speed Precip Events Conditions
12:15 AM 37.4 °F - 37.4 °F 100% 30.10 in 7.0 mi Calm Calm - N/A   Clear
12:55 AM 37.4 °F - 35.6 °F 93% 30.10 in 7.0 mi Calm Calm - N/A   Clear
1:15 AM 35.6 °F - 35.6 °F 100% 30.10 in 10.0 mi Calm Calm - N/A   Clear
1:35 AM 35.6 °F - 35.6 °F 100% 30.10 in 7.0 mi Calm Calm - N/A   Clear
1:55 AM 35.6 °F - 33.8 °F 93% 30.10 in 5.0 mi Calm Calm - N/A   Clear
2:15 AM 35.6 °F - 35.6 °F 100% 30.10 in 7.0 mi Calm Calm - N/A   Clear
2:55 AM 35.6 °F - 33.8 °F 93% 30.11 in 10.0 mi Calm Calm - N/A   Clear
6:15 AM 33.8 °F - 32.0 °F 93% 30.15 in 10.0 mi Calm Calm - N/A   Clear
6:35 AM 35.6 °F - 33.8 °F 93% 30.15 in 5.0 mi Calm Calm - N/A   Clear
7:35 AM 33.8 °F - 32.0 °F 93% 30.17 in 7.0 mi Calm Calm - N/A   Clear
7:55 AM 37.4 °F 33.8 °F 35.6 °F 93% 30.18 in 7.0 mi West 4.6 mph - N/A   Clear
8:15 AM 37.4 °F 33.8 °F 35.6 °F 93% 30.18 in 10.0 mi WNW 4.6 mph - N/A   Clear
8:35 AM 39.2 °F 37.0 °F 37.4 °F 93% 30.19 in 10.0 mi WNW 3.5 mph - N/A   Clear
8:55 AM 42.8 °F 41.1 °F 39.2 °F 87% 30.19 in 10.0 mi WNW 3.5 mph - N/A   Clear
9:15 AM 44.6 °F 41.4 °F 39.2 °F 81% 30.19 in 10.0 mi NW 5.8 mph - N/A   Clear
9:35 AM 46.4 °F 42.4 °F 41.0 °F 81% 30.19 in 10.0 mi NW 8.1 mph - N/A   Clear
10:15 AM 48.2 °F - 41.0 °F 76% 30.20 in 10.0 mi NW 5.8 mph - N/A   Clear
10:35 AM 50.0 °F - 41.0 °F 71% 30.20 in 10.0 mi WNW 5.8 mph - N/A   Clear
10:55 AM 51.8 °F - 41.0 °F 67% 30.21 in 10.0 mi NW 8.1 mph - N/A   Clear
11:15 AM 51.8 °F - 42.8 °F 71% 30.20 in 10.0 mi NW 8.1 mph - N/A   Clear
11:35 AM 53.6 °F - 42.8 °F 67% 30.20 in 10.0 mi WNW 6.9 mph - N/A   Clear
11:55 AM 53.6 °F - 42.8 °F 67% 30.19 in 10.0 mi NW 8.1 mph - N/A   Clear
12:15 PM 55.4 °F - 42.8 °F 63% 30.19 in 10.0 mi WNW 5.8 mph - N/A   Clear
12:35 PM 57.2 °F - 44.6 °F 63% 30.18 in 10.0 mi NW 5.8 mph - N/A   Clear
12:55 PM 59.0 °F - 44.6 °F 59% 30.18 in 10.0 mi WNW 5.8 mph - N/A   Clear
1:15 PM 59.0 °F - 44.6 °F 59% 30.17 in 10.0 mi NW 4.6 mph - N/A   Clear
1:35 PM 59.0 °F - 42.8 °F 55% 30.17 in 10.0 mi NW 5.8 mph - N/A   Clear
1:55 PM 60.8 °F - 42.8 °F 52% 30.17 in 10.0 mi WNW 4.6 mph - N/A   Clear
2:35 PM 60.8 °F - 42.8 °F 52% 30.15 in 10.0 mi NW 5.8 mph - N/A   Clear
2:55 PM 62.6 °F - 42.8 °F 48% 30.16 in 10.0 mi West 3.5 mph - N/A   Clear
3:15 PM 60.8 °F - 42.8 °F 52% 30.16 in 10.0 mi WNW 4.6 mph - N/A   Clear
3:35 PM 62.6 °F - 42.8 °F 48% 30.17 in 10.0 mi NW 5.8 mph - N/A   Clear
3:55 PM 62.6 °F - 42.8 °F 48% 30.17 in 10.0 mi West 4.6 mph - N/A   Clear
4:15 PM 60.8 °F - 42.8 °F 52% 30.17 in 10.0 mi West 3.5 mph - N/A   Clear
4:35 PM 60.8 °F - 42.8 °F 52% 30.17 in 10.0 mi Calm Calm - N/A   Clear
4:55 PM 60.8 °F - 42.8 °F 52% 30.17 in 10.0 mi Calm Calm - N/A   Clear
5:15 PM 57.2 °F - 42.8 °F 59% 30.17 in 10.0 mi Calm Calm - N/A   Clear
5:35 PM 53.6 °F - 42.8 °F 67% 30.17 in 10.0 mi Calm Calm - N/A   Clear
6:15 PM 50.0 °F - 42.8 °F 76% 30.17 in 10.0 mi Calm Calm - N/A   Clear
6:35 PM 48.2 °F - 41.0 °F 76% 30.18 in 10.0 mi Calm Calm - N/A   Clear
6:55 PM 44.6 °F - 41.0 °F 87% 30.19 in 10.0 mi Calm Calm - N/A   Clear
7:15 PM 42.8 °F - 39.2 °F 87% 30.19 in 10.0 mi Calm Calm - N/A   Clear
7:35 PM 42.8 °F - 37.4 °F 81% 30.19 in 10.0 mi Calm Calm - N/A   Clear
7:55 PM 41.0 °F - 37.4 °F 87% 30.20 in 10.0 mi Calm Calm - N/A   Clear
8:15 PM 41.0 °F - 37.4 °F 87% 30.20 in 10.0 mi Calm Calm - N/A   Clear
8:35 PM 41.0 °F - 37.4 °F 87% 30.20 in 10.0 mi Calm Calm - N/A   Clear
8:55 PM 37.4 °F - 35.6 °F 93% 30.21 in 10.0 mi Calm Calm - N/A   Clear
9:15 PM 37.4 °F - 35.6 °F 93% 30.21 in 7.0 mi Calm Calm - N/A   Clear
9:35 PM 37.4 °F - 35.6 °F 93% 30.21 in 7.0 mi Calm Calm - N/A   Clear
9:55 PM 35.6 °F - 35.6 °F 100% 30.21 in 7.0 mi Calm Calm - N/A   Clear
10:15 PM 35.6 °F - 33.8 °F 93% 30.21 in 7.0 mi Calm Calm - N/A   Clear
10:35 PM 35.6 °F - 33.8 °F 93% 30.22 in 7.0 mi Calm Calm - N/A   Clear
10:55 PM 33.8 °F - 33.8 °F 100% 30.21 in 4.0 mi Calm Calm - N/A   Clear
11:15 PM 33.8 °F - 33.8 °F 100% 30.22 in 5.0 mi Calm Calm - N/A   Clear
11:35 PM 35.6 °F - 33.8 °F 93% 30.21 in 7.0 mi Calm Calm - N/A   Clear
11:55 PM 33.8 °F - 33.8 °F 100% 30.21 in 4.0 mi Calm Calm - N/A   Clear